[[{"header":{"parameterUnit":"m.s-1","parameterCategory":1,"la1":30.2991,"la2":30.254,"lo1":-89.0895,"lo2":-89.0444,"dy":0.0017,"dx":0.0017,"nx":28,"ny":28,"refTime":"2025-01-07T03:00:00:Z","depth":0,"parameterNumber":2,"parameterNumberName":"U-component_of_WINDS"},"data":[0,0,0,0,0,0,0,0,0,0,0,0,0,0,0,0,0,0,0,0,0,0,0,0,0,0,0,0,0,0,0,0,0,0,0,0,0,0,0,0,0,0,0,0,0,0,0,0,0,0,0,0,0,0,0,0,0,0,2.9038,2.9039,0,2.9071,2.9071,2.9072,2.904,2.9039,2.9037,2.9036,2.9068,2.907,2.9072,0,0,0,0,0,0,0,0,0,0,0,0,0,2.8948,2.895,2.9038,2.9039,2.9039,2.9071,2.9071,2.9072,2.904,2.9038,2.9037,2.9036,2.9068,2.907,2.9073,0,0,0,0,0,0,0,0,0,0,0,0,0,2.8985,2.8951,2.9038,2.9027,2.9026,2.9071,2.9071,2.9072,2.904,2.9038,2.9037,2.9035,2.9067,2.907,2.9073,2.913,0,0,2.9082,2.9084,0,0,0,0,0,0,0,0,2.8983,2.8988,2.9028,2.9028,2.9027,2.9049,2.9051,2.9091,2.9041,2.9035,2.9036,2.9034,2.9064,2.9067,2.9077,2.9131,2.9132,2.9083,2.9084,2.9086,2.9087,0,0,0,0,0,0,0,2.898,2.8986,2.9051,2.9029,2.9028,2.902,2.9024,2.9059,2.9059,2.9035,2.9033,2.9038,2.9063,2.9074,2.9078,2.9133,2.9082,2.9085,2.9087,2.9088,2.9237,2.9239,0,0,0,0,0,0,2.8979,2.8985,2.905,2.9052,2.9,2.9024,2.9027,2.9044,2.9059,2.9059,2.9039,2.9036,2.907,2.9074,2.9079,2.9147,2.9086,2.9089,2.909,2.9235,2.9238,2.924,0,0,0,0,0,0,2.8977,2.8985,2.9049,2.9018,2.9025,2.9027,2.9047,2.9046,2.9057,2.9062,2.9062,2.9051,2.9069,2.9074,2.9118,2.9147,2.909,2.9093,2.9233,2.9236,2.9239,2.9283,0,0,0,0,0,0,2.8975,2.8985,2.9006,2.9019,2.9027,2.9087,2.9048,2.9048,2.9063,2.9059,2.9072,2.9073,2.9067,2.9113,2.9121,2.9151,2.9095,2.923,2.9234,2.9238,2.9279,2.9287,2.9295,0,0,0,0,0,2.8972,2.9016,2.9007,2.9015,2.9054,2.9089,2.9094,2.9087,2.9065,2.9087,2.909,2.9072,2.9143,2.9118,2.9126,2.9157,2.9228,2.9233,2.9237,2.9276,2.9286,2.9295,0,0,0,0,0,0,2.9006,2.9018,2.9008,2.9058,2.9073,2.9084,2.911,2.9098,2.9119,2.9114,2.9105,2.9108,2.9154,2.916,2.9132,2.9214,2.9182,2.9189,2.9208,2.9218,2.9226,2.9223,2.9098,0,0,0,0,0,2.902,2.9048,2.9056,2.91,2.9108,2.9108,2.9123,2.9117,2.9132,2.9138,2.9144,2.9159,2.9185,2.9202,2.9226,2.928,2.9283,2.9306,2.9314,2.932,2.9326,2.9356,2.9367,2.9256,2.9256,2.9256,0,0,2.9048,2.9058,2.9076,2.9107,2.9118,2.9147,2.9114,2.9145,2.9167,2.9142,2.9184,2.919,2.9206,2.9256,2.9278,2.9262,2.9358,2.9326,2.9331,2.9333,2.9362,2.9373,2.9382,2.9259,2.9258,2.9258,0,0,2.9114,2.9124,2.9162,2.9174,2.9192,2.9192,2.9201,2.9214,2.9218,2.9259,2.9242,2.9268,2.9312,2.9325,2.9337,2.9411,2.9396,2.9419,2.946,2.949,2.9498,2.9506,2.9533,2.9543,2.9425,2.9425,2.9425,0,2.9146,2.919,2.9183,2.9217,2.9232,2.9212,2.9251,2.9263,2.9287,2.9298,2.928,2.9337,2.9346,2.9399,2.9417,2.9428,2.9438,2.9417,2.9498,2.9505,2.9513,2.9538,2.9548,2.9428,2.9427,2.9427,2.9427,0,2.9229,2.926,2.9289,2.9314,2.9332,2.9368,2.9367,2.9386,2.9379,2.9382,2.9425,2.9437,2.9463,2.9475,2.9468,2.9528,2.9518,2.9499,2.9467,2.9526,2.955,2.956,2.9432,2.9431,2.943,2.9429,0,0,2.9316,2.9339,2.9349,2.9361,2.938,2.9403,2.944,2.9466,2.9483,2.9501,2.9531,2.9571,2.9554,2.9568,2.9563,2.9589,2.9648,2.9568,2.9568,2.9582,2.9716,2.973,2.9741,2.9639,2.9641,2.9642,2.9715,0,2.9383,2.9445,2.9442,2.95,2.9529,2.9513,2.9544,2.9559,2.9563,2.9588,2.9592,2.9621,2.9597,2.9605,2.9631,2.9636,2.9675,2.963,2.9667,2.9668,2.9663,2.9753,2.9767,2.9835,2.9724,2.9725,2.9727,0,2.9469,2.9491,2.9553,2.957,2.9581,2.961,2.9635,2.9659,2.9677,2.9678,2.9695,2.9686,2.9723,2.9691,2.9742,2.9712,2.9727,2.9732,2.9734,2.9737,2.9701,2.9758,2.9856,2.9866,2.9741,2.974,2.9739,0,2.9526,2.9572,2.9615,2.9626,2.9646,2.9666,2.9676,2.9691,2.9709,2.9731,2.9742,2.9768,2.9782,2.9803,2.9801,2.9778,2.9854,2.9821,2.9856,2.9856,2.9872,2.9871,2.9973,2.9882,2.9882,2.9882,2.9882,0,2.9601,2.964,2.9641,2.9668,2.9711,2.9707,2.975,2.9757,2.9772,2.98,2.9788,2.9814,2.9811,2.9838,2.9837,2.988,2.9887,2.9889,2.9888,2.989,2.9889,2.9899,2.9894,2.9884,2.9884,2.9883,2.9883,0,2.9672,2.9674,2.9721,2.9737,2.9742,2.9773,2.9787,2.9813,2.9817,2.9852,2.9861,2.9866,2.9898,2.9899,2.9934,2.9934,2.9987,2.9981,2.9981,2.998,3.0014,3.0011,3.0126,3.0142,3.0041,3.0042,3.0043,0,2.9719,2.9749,2.9769,2.9787,2.9798,2.9827,2.9845,2.9843,2.9862,2.9886,2.9909,2.9939,2.9963,3.0015,3.0022,3.005,3.0044,3.0083,3.0048,3.005,3.0045,3.0043,3.0047,3.0089,3.009,3.0091,3.0092,0,2.9803,2.9803,2.983,2.9857,2.9879,2.99,2.992,2.9936,2.9936,2.9959,2.9991,3.001,3.0048,3.0078,3.0106,3.0116,3.0104,3.0103,3.0113,3.0115,3.0114,3.0115,2.9999,3.01,3.0099,3.0099,3.0098,3.0098,2.9863,2.989,2.9908,2.9938,2.9954,2.9973,2.9998,3.0006,3.0033,3.0064,3.0061,3.0098,3.0116,3.0152,3.0165,3.0193,3.018,3.0194,3.0197,3.0201,3.0205,3.011,3.0198,3.0198,3.0198,3.0198,3.0198,0,2.9947,2.9959,2.9987,3.0015,3.004,3.0028,3.005,3.0071,3.0103,3.0122,3.0147,3.0185,3.0215,3.0226,3.0256,3.0277,3.0273,3.0285,3.0283,3.0286,3.0214,3.0203,3.0288,3.0288,3.0288,3.0288,3.0288,3.0288,2.9993,3.0037,3.004,3.0092,3.0103,3.0139,3.0153,3.0171,3.0186,3.023,3.0255,3.0263,3.0279,3.031,3.0337,3.034,3.0351,3.0366,3.0366,3.0299,3.029,3.0282,3.0271,3.0369,3.0369,3.0435,3.0436,3.0436]},{"header":{"parameterUnit":"m.s-1","parameterCategory":1,"la1":30.2991,"la2":30.254,"lo1":-89.0895,"lo2":-89.0444,"dy":0.0017,"dx":0.0017,"nx":28,"ny":28,"refTime":"2025-01-07T03:00:00:Z","depth":0,"parameterNumber":3,"parameterNumberName":"V-component_of_WINDS"},"data":[0,0,0,0,0,0,0,0,0,0,0,0,0,0,0,0,0,0,0,0,0,0,0,0,0,0,0,0,0,0,0,0,0,0,0,0,0,0,0,0,0,0,0,0,0,0,0,0,0,0,0,0,0,0,0,0,0,0,-9.1532,-9.1534,0,-9.1713,-9.1715,-9.1717,-9.1618,-9.1613,-9.1608,-9.1603,-9.1783,-9.1792,-9.1802,0,0,0,0,0,0,0,0,0,0,0,0,0,-9.1097,-9.1106,-9.1532,-9.1534,-9.1536,-9.1713,-9.1715,-9.1717,-9.1619,-9.1613,-9.1607,-9.1601,-9.178,-9.1791,-9.1803,0,0,0,0,0,0,0,0,0,0,0,0,0,-9.1283,-9.1108,-9.1531,-9.1508,-9.1508,-9.1712,-9.1715,-9.1718,-9.162,-9.1612,-9.1605,-9.1598,-9.1777,-9.179,-9.1804,-9.2039,0,0,-9.1847,-9.1853,0,0,0,0,0,0,0,0,-9.1272,-9.1299,-9.151,-9.151,-9.151,-9.1635,-9.1628,-9.1826,-9.1622,-9.1577,-9.1603,-9.1594,-9.174,-9.1756,-9.1806,-9.2048,-9.2056,-9.1848,-9.1857,-9.1863,-9.1867,0,0,0,0,0,0,0,-9.126,-9.129,-9.1603,-9.1513,-9.1513,-9.1488,-9.1506,-9.1665,-9.1698,-9.1581,-9.1574,-9.1597,-9.1738,-9.1793,-9.181,-9.2058,-9.1848,-9.1861,-9.1869,-9.1875,-9.2503,-9.2511,0,0,0,0,0,0,-9.1249,-9.128,-9.1597,-9.1609,-9.1371,-9.1502,-9.1522,-9.1603,-9.1696,-9.1703,-9.1603,-9.1592,-9.1773,-9.1794,-9.1816,-9.2098,-9.1863,-9.1876,-9.1884,-9.2495,-9.2505,-9.2514,0,0,0,0,0,0,-9.124,-9.1278,-9.159,-9.1443,-9.1481,-9.1517,-9.1608,-9.161,-9.1665,-9.1713,-9.1718,-9.1653,-9.1768,-9.1796,-9.1985,-9.2103,-9.1883,-9.1895,-9.2485,-9.2498,-9.2509,-9.2665,0,0,0,0,0,0,-9.1228,-9.1275,-9.1366,-9.1446,-9.1489,-9.1758,-9.1616,-9.1619,-9.169,-9.1677,-9.1761,-9.1768,-9.1764,-9.1965,-9.1999,-9.2119,-9.1906,-9.2475,-9.2491,-9.2505,-9.2649,-9.2681,-9.2708,0,0,0,0,0,-9.1213,-9.1401,-9.1371,-9.141,-9.1603,-9.1765,-9.179,-9.1783,-9.17,-9.1791,-9.1822,-9.1765,-9.2085,-9.1985,-9.2023,-9.2148,-9.2467,-9.2486,-9.2504,-9.2636,-9.2675,-9.2707,0,0,0,0,0,0,-9.1332,-9.1411,-9.1379,-9.1599,-9.1677,-9.1748,-9.1863,-9.1824,-9.1925,-9.1909,-9.1894,-9.1914,-9.2111,-9.2148,-9.2036,-9.2381,-9.2263,-9.229,-9.235,-9.2387,-9.2416,-9.2403,-9.1918,0,0,0,0,0,-9.1385,-9.1511,-9.1573,-9.1761,-9.1802,-9.1826,-9.1896,-9.1885,-9.1964,-9.1995,-9.204,-9.2118,-9.2235,-9.2313,-9.2424,-9.2654,-9.2671,-9.2759,-9.2788,-9.2812,-9.2836,-9.2961,-9.3001,-9.2574,-9.2574,-9.2574,0,0,-9.1494,-9.1552,-9.1633,-9.1787,-9.1845,-9.1976,-9.1854,-9.1997,-9.2093,-9.2016,-9.2199,-9.2235,-9.232,-9.2531,-9.2626,-9.2568,-9.2958,-9.2836,-9.2855,-9.2865,-9.2984,-9.3025,-9.306,-9.2587,-9.2585,-9.2583,0,0,-9.1759,-9.1816,-9.198,-9.2042,-9.2133,-9.2148,-9.2188,-9.2267,-9.2288,-9.2471,-9.2417,-9.253,-9.2733,-9.2797,-9.2856,-9.3147,-9.3099,-9.3184,-9.3337,-9.3459,-9.3493,-9.3523,-9.3627,-9.3665,-9.3207,-9.3207,-9.3208,0,-9.1882,-9.2078,-9.2069,-9.2217,-9.2286,-9.2225,-9.2391,-9.245,-9.2573,-9.2622,-9.2555,-9.281,-9.2863,-9.3089,-9.316,-9.321,-9.3254,-9.3174,-9.3489,-9.3519,-9.3546,-9.3646,-9.3685,-9.3217,-9.3216,-9.3215,-9.3214,0,-9.2225,-9.2362,-9.2483,-9.2606,-9.2688,-9.2844,-9.2858,-9.2943,-9.2925,-9.2947,-9.3134,-9.3196,-9.3319,-9.3371,-9.3354,-9.3595,-9.3557,-9.349,-9.3371,-9.3597,-9.369,-9.3728,-9.3231,-9.3227,-9.3225,-9.3222,0,0,-9.257,-9.2687,-9.2732,-9.2787,-9.2884,-9.2989,-9.3142,-9.3264,-9.3338,-9.3424,-9.3552,-9.3726,-9.3666,-9.3733,-9.3722,-9.3829,-9.4057,-9.375,-9.3751,-9.3805,-9.4328,-9.4378,-9.4422,-9.4026,-9.4033,-9.4039,-9.4321,0,-9.2842,-9.3112,-9.3109,-9.3358,-9.3485,-9.3429,-9.3562,-9.3636,-9.3661,-9.377,-9.3797,-9.3921,-9.3832,-9.3872,-9.3976,-9.4008,-9.4162,-9.3987,-9.4144,-9.415,-9.4125,-9.447,-9.4523,-9.4786,-9.4357,-9.4363,-9.4368,0,-9.3195,-9.3297,-9.3559,-9.3639,-9.3692,-9.3812,-9.3925,-9.4031,-9.4113,-9.4123,-9.42,-9.4172,-9.4327,-9.4203,-9.4416,-9.4298,-9.4361,-9.4387,-9.4397,-9.4411,-9.4273,-9.4494,-9.487,-9.491,-9.4425,-9.442,-9.4416,0,-9.3422,-9.3623,-9.3806,-9.3855,-9.3953,-9.4039,-9.4083,-9.4158,-9.4232,-9.433,-9.4378,-9.4492,-9.4555,-9.4643,-9.4647,-9.4557,-9.4862,-9.4739,-9.4875,-9.4875,-9.4941,-9.4937,-9.5333,-9.4983,-9.4982,-9.4981,-9.498,0,-9.3726,-9.3889,-9.391,-9.4023,-9.4204,-9.4198,-9.4377,-9.4413,-9.4481,-9.4599,-9.4557,-9.4668,-9.4667,-9.478,-9.4784,-9.496,-9.4988,-9.5,-9.5,-9.5005,-9.5003,-9.5046,-9.5028,-9.4992,-9.4989,-9.4987,-9.4986,0,-9.4009,-9.4029,-9.4226,-9.4303,-9.4326,-9.4456,-9.4522,-9.4629,-9.465,-9.4801,-9.4835,-9.4869,-9.5,-9.5013,-9.5165,-9.5168,-9.5381,-9.536,-9.5354,-9.5351,-9.5486,-9.5474,-9.5923,-9.5982,-9.5594,-9.5597,-9.56,0,-9.4202,-9.4327,-9.4418,-9.4495,-9.4545,-9.467,-9.4746,-9.4746,-9.4826,-9.493,-9.5025,-9.5153,-9.5255,-9.5467,-9.5504,-9.5621,-9.5602,-9.5752,-9.5619,-9.5621,-9.5605,-9.5598,-9.5611,-9.5778,-9.5782,-9.5785,-9.5788,0,-9.4543,-9.4547,-9.466,-9.4777,-9.487,-9.4962,-9.5047,-9.5112,-9.5122,-9.5215,-9.5351,-9.543,-9.5587,-9.5714,-9.5829,-9.5872,-9.5833,-9.583,-9.5868,-9.5874,-9.5866,-9.5873,-9.5425,-9.5819,-9.5816,-9.5814,-9.5812,-9.5811,-9.4787,-9.4896,-9.4978,-9.5105,-9.517,-9.5251,-9.5356,-9.5392,-9.5505,-9.5634,-9.5627,-9.5776,-9.5855,-9.6005,-9.6058,-9.6174,-9.6124,-9.6178,-9.6192,-9.6206,-9.622,-9.5848,-9.6195,-9.6194,-9.6193,-9.6192,-9.6192,0,-9.5126,-9.5176,-9.5294,-9.5416,-9.5517,-9.5472,-9.5565,-9.5651,-9.5784,-9.5862,-9.5965,-9.612,-9.6244,-9.6292,-9.6412,-9.6496,-9.6481,-9.6528,-9.6521,-9.6532,-9.6258,-9.6213,-9.6538,-9.6538,-9.6538,-9.6538,-9.6538,-9.6538,-9.5314,-9.5496,-9.5511,-9.5724,-9.5773,-9.5921,-9.5978,-9.6053,-9.6115,-9.6292,-9.6395,-9.6426,-9.6492,-9.6618,-9.6729,-9.6739,-9.6786,-9.6841,-9.6844,-9.6586,-9.6552,-9.6518,-9.6476,-9.6851,-9.6852,-9.7109,-9.7111,-9.7113]}]]